TimeEST,TemperatureF,Dew PointF,Humidity,Sea Level PressureIn,VisibilityMPH,Wind Direction,Wind SpeedMPH,Gust SpeedMPH,PrecipitationIn,Events,Conditions,WindDirDegrees,DateUTC
12:53 AM,7.0,-2.9,64,30.28,10.0,SSW,4.6,-,N/A,,Clear,200,2014-01-30 05:53:00
1:53 AM,-2.0,-7.1,79,30.30,10.0,South,4.6,-,N/A,,Clear,190,2014-01-30 06:53:00
2:53 AM,5.0,-2.0,73,30.32,10.0,SW,8.1,-,N/A,,Clear,220,2014-01-30 07:53:00
3:53 AM,10.0,-0.0,64,30.32,10.0,SW,5.8,-,N/A,,Clear,230,2014-01-30 08:53:00
4:53 AM,1.9,-4.0,76,30.35,10.0,South,5.8,-,N/A,,Clear,180,2014-01-30 09:53:00
5:53 AM,1.0,-5.1,75,30.38,10.0,Calm,Calm,-,N/A,,Scattered Clouds,0,2014-01-30 10:53:00
6:53 AM,-0.9,-4.0,87,30.40,10.0,Calm,Calm,-,N/A,,Clear,0,2014-01-30 11:53:00
7:53 AM,-0.0,-5.1,79,30.42,10.0,Calm,Calm,-,N/A,,Clear,0,2014-01-30 12:53:00
8:53 AM,9.0,-0.0,67,30.44,10.0,South,3.5,-,N/A,,Clear,180,2014-01-30 13:53:00
9:53 AM,14.0,1.0,56,30.45,10.0,South,8.1,-,N/A,,Clear,170,2014-01-30 14:53:00
10:53 AM,17.1,1.0,50,30.43,10.0,SSW,15.0,-,N/A,,Clear,200,2014-01-30 15:53:00
11:53 AM,19.0,3.0,50,30.40,10.0,South,8.1,-,N/A,,Clear,180,2014-01-30 16:53:00
12:53 PM,21.0,3.9,48,30.36,10.0,South,10.4,17.3,N/A,,Clear,170,2014-01-30 17:53:00
1:53 PM,21.9,3.0,44,30.33,10.0,SSE,11.5,-,N/A,,Clear,150,2014-01-30 18:53:00
2:53 PM,23.0,1.0,39,30.30,10.0,South,6.9,-,N/A,,Clear,170,2014-01-30 19:53:00
3:53 PM,24.1,1.0,37,30.29,10.0,South,9.2,-,N/A,,Clear,190,2014-01-30 20:53:00
4:53 PM,21.9,1.0,40,30.26,10.0,SSW,4.6,-,N/A,,Clear,210,2014-01-30 21:53:00
5:53 PM,15.1,1.0,54,30.26,10.0,Calm,Calm,-,N/A,,Clear,0,2014-01-30 22:53:00
6:53 PM,10.0,-0.0,64,30.24,10.0,Calm,Calm,-,N/A,,Clear,0,2014-01-30 23:53:00
7:53 PM,8.1,-0.0,70,30.21,10.0,Calm,Calm,-,N/A,,Clear,0,2014-01-31 00:53:00
8:53 PM,9.0,-0.0,67,30.19,10.0,Calm,Calm,-,N/A,,Clear,0,2014-01-31 01:53:00
9:53 PM,19.0,3.0,50,30.16,10.0,SSW,6.9,-,N/A,,Clear,210,2014-01-31 02:53:00
10:53 PM,19.9,3.9,50,30.11,10.0,South,6.9,-,N/A,,Clear,190,2014-01-31 03:53:00
11:53 PM,19.9,3.9,50,30.08,10.0,SSW,3.5,-,N/A,,Clear,200,2014-01-31 04:53:00